Retour au catalogue

STARLINK-35538

ActifCommunicationsVLEO
NORAD 66475·PAYLOAD·🇺🇸 United States

Lancé Nov 15, 2025 depuis Cape Canaveral Space Force Station

Loading…

Prochains Passages (prochaines 24 heures)

TLE

FraisSource: CelesTrak SupGP

Époque: Sep 15, 2026, 03:17 UTC

1 66475C 25262V   26258.13729167  .00023384  00000+0  84690-3 0  2581
2 66475  43.0022 306.5540 0001306 263.2303 204.4004 15.27569802    13

Suivez STARLINK-35538 en temps réel avec AllMySat

Download on the App Store